Hourly Weather Kiyma

Today, 30 July, Friday

Time Temperature Precipitation Wind Pressure Humidity
00:00 +14°C° 0 mm 3 mps 736 mmHg 51%
01:00 +13°C° 0 mm 3 mps 736 mmHg 52%
02:00 +14°C° 0 mm 2 mps 736 mmHg 53%
03:00 +13°C° 0 mm 2 mps 736 mmHg 55%
04:00 +13°C° 0 mm 1 mps 736 mmHg 57%
05:00 +12°C° 0 mm 1 mps 737 mmHg 58%
06:00 +14°C° 0 mm 1 mps 737 mmHg 52%
07:00 +18°C° 0 mm 1 mps 737 mmHg 47%
08:00 +18°C° 0 mm 0 mps 738 mmHg 41%
09:00 +21°C° 0 mm 1 mps 738 mmHg 38%
10:00 +22°C° 0 mm 1 mps 738 mmHg 35%
11:00 +24°C° 0 mm 2 mps 738 mmHg 32%
12:00 +24°C° 0 mm 2 mps 738 mmHg 30%
13:00 +25°C° 0 mm 3 mps 738 mmHg 28%
14:00 +26°C° 0 mm 3 mps 737 mmHg 26%
15:00 +26°C° 0 mm 3 mps 737 mmHg 26%
16:00 +27°C° 0 mm 3 mps 737 mmHg 25%
17:00 +27°C° 0 mm 3 mps 737 mmHg 25%
18:00 +26°C° 0 mm 3 mps 736 mmHg 28%
19:00 +25°C° 0 mm 3 mps 736 mmHg 31%
20:00 +22°C° 0 mm 3 mps 736 mmHg 34%
21:00 +22°C° 0 mm 3 mps 736 mmHg 34%
22:00 +21°C° 0 mm 3 mps 736 mmHg 34%
23:00 +21°C° 0 mm 3 mps 736 mmHg 34%

Tomorrow, 31 July, Saturday

Time Temperature Precipitation Wind Pressure Humidity
00:00 +21°C° 0 mm 4 mps 735 mmHg 33%
01:00 +21°C° 0 mm 4 mps 735 mmHg 32%
02:00 +21°C° 0 mm 5 mps 735 mmHg 31%
03:00 +21°C° 0 mm 5 mps 735 mmHg 30%
04:00 +21°C° 0 mm 6 mps 735 mmHg 29%
05:00 +22°C° 0 mm 6 mps 735 mmHg 28%
06:00 +23°C° 0 mm 7 mps 735 mmHg 27%
07:00 +24°C° 0 mm 7 mps 735 mmHg 27%
08:00 +24°C° 0 mm 8 mps 735 mmHg 26%
09:00 +27°C° 0 mm 8 mps 735 mmHg 26%
10:00 +29°C° 0 mm 7 mps 735 mmHg 26%
11:00 +32°C° 0 mm 7 mps 735 mmHg 26%
12:00 +32°C° 0 mm 7 mps 734 mmHg 27%
13:00 +33°C° 0 mm 7 mps 734 mmHg 28%
14:00 +34°C° 0 mm 6 mps 734 mmHg 30%
15:00 +34°C° 0 mm 6 mps 734 mmHg 31%
16:00 +33°C° 0 mm 6 mps 734 mmHg 32%
17:00 +33°C° 0 mm 6 mps 735 mmHg 33%
18:00 +32°C° 0 mm 5 mps 735 mmHg 38%
19:00 +29°C° 0 mm 4 mps 735 mmHg 43%
20:00 +27°C° 0 mm 3 mps 735 mmHg 48%
21:00 +26°C° 0 mm 3 mps 735 mmHg 51%
22:00 +25°C° 0 mm 2 mps 735 mmHg 54%
23:00 +24°C° 0 mm 2 mps 735 mmHg 57%

Day after tomorrow, 1 August, Sunday

Time Temperature Precipitation Wind Pressure Humidity
00:00 +24°C° 0 mm 1 mps 735 mmHg 59%
01:00 +23°C° 0 mm 1 mps 735 mmHg 60%
02:00 +23°C° 0 mm 1 mps 735 mmHg 62%
03:00 +23°C° 0 mm 1 mps 735 mmHg 62%
04:00 +22°C° 0 mm 1 mps 735 mmHg 62%
05:00 +21°C° 0 mm 2 mps 735 mmHg 63%
06:00 +24°C° 0 mm 2 mps 736 mmHg 57%
07:00 +26°C° 0 mm 2 mps 736 mmHg 51%
08:00 +28°C° 0 mm 2 mps 736 mmHg 46%
09:00 +30°C° 0 mm 2 mps 736 mmHg 41%
10:00 +31°C° 0 mm 2 mps 736 mmHg 36%
11:00 +34°C° 0 mm 3 mps 735 mmHg 31%
12:00 +35°C° 0 mm 3 mps 735 mmHg 29%
13:00 +36°C° 0 mm 4 mps 735 mmHg 26%
14:00 +37°C° 0 mm 4 mps 735 mmHg 24%
15:00 +37°C° 0 mm 4 mps 734 mmHg 24%
16:00 +36°C° 0 mm 4 mps 734 mmHg 23%
17:00 +36°C° 0 mm 3 mps 734 mmHg 23%
18:00 +34°C° 0 mm 3 mps 733 mmHg 27%
19:00 +31°C° 0 mm 3 mps 733 mmHg 30%
20:00 +30°C° 0 mm 3 mps 733 mmHg 34%
21:00 +29°C° 0 mm 3 mps 733 mmHg 35%
22:00 +29°C° 0 mm 3 mps 733 mmHg 35%
23:00 +28°C° 0 mm 3 mps 733 mmHg 35%

2 August, Monday

Time Temperature Precipitation Wind Pressure Humidity
00:00 +27°C° 0 mm 3 mps 733 mmHg 37%
01:00 +27°C° 0 mm 3 mps 733 mmHg 38%
02:00 +26°C° 0 mm 3 mps 733 mmHg 40%
03:00 +25°C° 0 mm 3 mps 733 mmHg 46%
04:00 +24°C° 0 mm 3 mps 733 mmHg 52%
05:00 +21°C° 0 mm 3 mps 733 mmHg 59%
06:00 +23°C° 0 mm 4 mps 733 mmHg 57%
07:00 +25°C° 0 mm 4 mps 734 mmHg 55%
08:00 +27°C° 0 mm 5 mps 734 mmHg 53%
09:00 +28°C° 0 mm 5 mps 734 mmHg 48%
10:00 +29°C° 0 mm 5 mps 734 mmHg 42%
11:00 +32°C° 0 mm 6 mps 735 mmHg 37%
12:00 +32°C° 0 mm 6 mps 734 mmHg 34%
13:00 +33°C° 0 mm 6 mps 734 mmHg 31%
14:00 +33°C° 0 mm 5 mps 734 mmHg 28%
15:00 +33°C° 0 mm 6 mps 735 mmHg 27%
16:00 +33°C° 0 mm 6 mps 735 mmHg 26%
17:00 +33°C° 0 mm 6 mps 735 mmHg 26%
18:00 +30°C° 0 mm 5 mps 735 mmHg 30%
19:00 +28°C° 0 mm 4 mps 735 mmHg 34%
20:00 +27°C° 0 mm 3 mps 735 mmHg 38%
21:00 +26°C° 0 mm 3 mps 735 mmHg 42%
22:00 +25°C° 0 mm 3 mps 735 mmHg 46%
23:00 +24°C° 0 mm 3 mps 735 mmHg 50%

3 August, Tuesday

Time Temperature Precipitation Wind Pressure Humidity
00:00 +22°C° 0 mm 3 mps 736 mmHg 52%
01:00 +21°C° 0 mm 3 mps 736 mmHg 54%
02:00 +20°C° 0 mm 3 mps 736 mmHg 56%
03:00 +20°C° 0 mm 3 mps 736 mmHg 58%
04:00 +19°C° 0 mm 3 mps 736 mmHg 60%
05:00 +19°C° 0 mm 3 mps 736 mmHg 62%
06:00 +21°C° 0 mm 3 mps 737 mmHg 57%
07:00 +22°C° 0 mm 3 mps 737 mmHg 52%
08:00 +25°C° 0 mm 3 mps 737 mmHg 47%
09:00 +26°C° 0 mm 3 mps 737 mmHg 43%
10:00 +28°C° 0 mm 3 mps 738 mmHg 39%
11:00 +29°C° 0 mm 3 mps 738 mmHg 35%
12:00 +30°C° 0 mm 4 mps 738 mmHg 33%
13:00 +30°C° 0 mm 4 mps 737 mmHg 31%
14:00 +32°C° 0 mm 4 mps 737 mmHg 30%
15:00 +32°C° 0 mm 4 mps 737 mmHg 30%
16:00 +32°C° 0 mm 4 mps 737 mmHg 30%
17:00 +32°C° 0 mm 4 mps 737 mmHg 30%
18:00 +30°C° 0 mm 4 mps 737 mmHg 34%
19:00 +29°C° 0 mm 3 mps 737 mmHg 38%
20:00 +27°C° 0 mm 3 mps 737 mmHg 42%
21:00 +26°C° 0 mm 2 mps 737 mmHg 45%
22:00 +25°C° 0 mm 2 mps 737 mmHg 48%
23:00 +24°C° 0 mm 1 mps 737 mmHg 51%

4 August, Wednesday

Time Temperature Precipitation Wind Pressure Humidity
00:00 +24°C° 0 mm 1 mps 737 mmHg 53%
01:00 +23°C° 0 mm 1 mps 737 mmHg 55%
02:00 +20°C° 0 mm 0 mps 737 mmHg 57%
03:00 +22°C° 0 mm 1 mps 737 mmHg 58%
04:00 +22°C° 0 mm 1 mps 737 mmHg 58%
05:00 +21°C° 0 mm 2 mps 737 mmHg 59%
06:00 +24°C° 0 mm 2 mps 737 mmHg 54%
07:00 +26°C° 0 mm 2 mps 737 mmHg 50%
08:00 +27°C° 0 mm 2 mps 738 mmHg 45%
09:00 +29°C° 0 mm 2 mps 738 mmHg 42%
10:00 +30°C° 0 mm 2 mps 737 mmHg 39%
11:00 +33°C° 0 mm 3 mps 737 mmHg 36%
12:00 +33°C° 0 mm 4 mps 737 mmHg 33%
13:00 +34°C° 0 mm 4 mps 737 mmHg 31%
14:00 +35°C° 0 mm 5 mps 737 mmHg 29%
15:00 +35°C° 0 mm 5 mps 737 mmHg 29%
16:00 +34°C° 0 mm 6 mps 737 mmHg 29%
17:00 +34°C° 0 mm 6 mps 737 mmHg 29%
18:00 +33°C° 0 mm 5 mps 737 mmHg 32%
19:00 +30°C° 0 mm 4 mps 737 mmHg 35%
20:00 +28°C° 0 mm 3 mps 737 mmHg 39%
21:00 +27°C° 0 mm 3 mps 737 mmHg 41%
22:00 +26°C° 0 mm 3 mps 737 mmHg 42%
23:00 +25°C° 0 mm 2 mps 737 mmHg 44%
Show more